Location: Arbon
(43.0005°N, 0.7472°E)
Time: 22:50:51
(UTC+00:00)

Altair - Pass Details

Date: 01 December 2020
Orbit: 1501 x 1682 km, 47.2° (Epoch: 26 January)

Event Time Altitude Azimuth Distance (km) Brightness Sun altitude
Rises 04:05:41 0° 289° (WNW) 4,638 - -32.8°
Reaches altitude 10° 04:10:02 10° 271° (W) 3,662 - -32.0°
Maximum altitude 04:15:24 17° 234° (SW) 3,142 - -31.0°
Exits shadow 04:19:39 12° 204° (SSW) 3,500 9.2 -30.3°
Drops below altitude 10° 04:20:50 10° 198° (SSW) 3,704 9.3 -30.1°
Sets 04:25:19 0° 179° (S) 4,714 10.1 -29.2°
